Moorhead, MN

2:47 AM CDT on May 23, 2017 (GMT -0500)
Moorhead Municipal

Weather History for KJKJ - October, 2012

Change the Weather History Date:

Friday, October 12, 2012

  Actual Average (KFAR) Record (KFAR)
Temperature  
Mean Temperature 40 °F -  
Max Temperature 53 °F 56 °F 84 °F (1956)
Min Temperature 26 °F 35 °F 13 °F (1919)
Degree Days  
Heating Degree Days 26    
Moisture  
Dew Point 22 °F    
Average Humidity 57    
Maximum Humidity 93    
Minimum Humidity 24    
Precipitation  
Precipitation 0.00 in - - ()
Sea Level Pressure  
Sea Level Pressure 30.19 in    
Wind  
Wind Speed 10 mph (South)    
Max Wind Speed 23 mph    
Max Gust Speed 33 mph    
Visibility 10 miles    
Events      
Averages and records for this station are not official NWS values.
T = Trace of Precipitation, MM = Missing Value Source: NWS Daily Summary

Daily Weather History Graph

Daily Weather History Graph

Search for Another Location

Airport or City:

Trip Planner

Search our weather history database for the weather conditions in past years. The results will help you decide how hot, cold, wet, or windy it might be!

Date:

Astronomy

Oct. 12, 2012 Rise Set
Actual Time 7:41 AM CDT 6:44 PM CDT
Civil Twilight 7:10 AM CDT 7:14 PM CDT
Nautical Twilight 6:35 AM CDT 7:49 PM CDT
Astronomical Twilight 6:00 AM CDT 8:24 PM CDT
Moon 4:15 AM CDT (10/12) 5:02 PM CDT (10/12)
Length of Visible Light 12h 04m
Length of Day
11h 03m
Waning Crescent, 10% of the Moon is Illuminated
Oct 12
Waning Crescent
Oct 15
New
Oct 21
First Quarter
Oct 29
Full
Nov 6
Last Quarter

Hourly Weather History & Observations

Time (CDT) Temp. Windchill Dew Point Humidity Pressure Visibility Wind Dir Wind Speed Gust Speed Precip Events Conditions
12:15 AM 28.4 °F 23.3 °F 24.8 °F 86% 30.40 in 10.0 mi SE 4.6 mph - N/A   Clear
12:35 AM 28.4 °F 23.3 °F 24.8 °F 86% 30.40 in 10.0 mi SE 4.6 mph - N/A   Clear
12:54 AM 28.4 °F 23.3 °F 24.8 °F 86% 30.40 in 10.0 mi SSE 4.6 mph - N/A   Clear
1:15 AM 26.6 °F 22.6 °F 24.8 °F 93% 30.40 in 10.0 mi South 3.5 mph - N/A   Clear
1:35 AM 28.4 °F 22.2 °F 24.8 °F 86% 30.40 in 10.0 mi South 5.8 mph - N/A   Clear
1:55 AM 28.4 °F 24.6 °F 24.8 °F 86% 30.41 in 10.0 mi South 3.5 mph - N/A   Clear
2:15 AM 26.6 °F 20.0 °F 23.0 °F 86% 30.41 in 10.0 mi South 5.8 mph - N/A   Clear
2:34 AM 28.4 °F 21.2 °F 24.8 °F 86% 30.40 in 10.0 mi South 6.9 mph - N/A   Clear
3:15 AM 26.6 °F 20.0 °F 24.8 °F 93% 30.39 in 10.0 mi SSE 5.8 mph - N/A   Clear
3:34 AM 26.6 °F 21.2 °F 24.8 °F 93% 30.39 in 10.0 mi South 4.6 mph - N/A   Clear
3:55 AM 26.6 °F 21.2 °F 24.8 °F 93% 30.39 in 10.0 mi South 4.6 mph - N/A   Clear
4:15 AM 26.6 °F 20.0 °F 23.0 °F 86% 30.38 in 10.0 mi South 5.8 mph - N/A   Clear
4:35 AM 26.6 °F 20.0 °F 23.0 °F 86% 30.39 in 10.0 mi South 5.8 mph - N/A   Clear
4:55 AM 26.6 °F 20.0 °F 23.0 °F 86% 30.38 in 10.0 mi South 5.8 mph - N/A   Clear
5:15 AM 26.6 °F 19.1 °F 23.0 °F 86% 30.38 in 10.0 mi South 6.9 mph - N/A   Clear
5:55 AM 26.6 °F 18.2 °F 23.0 °F 86% 30.37 in 10.0 mi South 8.1 mph - N/A   Clear
6:15 AM 26.6 °F 17.5 °F 23.0 °F 86% 30.37 in 10.0 mi South 9.2 mph - N/A   Clear
6:35 AM 26.6 °F 17.5 °F 23.0 °F 86% 30.37 in 10.0 mi South 9.2 mph - N/A   Clear
6:55 AM 26.6 °F 18.2 °F 23.0 °F 86% 30.36 in 10.0 mi SSE 8.1 mph - N/A   Clear
7:14 AM 26.6 °F 18.2 °F 23.0 °F 86% 30.36 in 10.0 mi SSE 8.1 mph - N/A   Clear
7:35 AM 26.6 °F 17.5 °F 23.0 °F 86% 30.36 in 10.0 mi SSE 9.2 mph - N/A   Clear
7:55 AM 26.6 °F 17.5 °F 23.0 °F 86% 30.35 in 10.0 mi SSE 9.2 mph - N/A   Clear
8:14 AM 26.6 °F 17.5 °F 24.8 °F 93% 30.35 in 10.0 mi SSE 9.2 mph - N/A   Clear
8:35 AM 28.4 °F 18.5 °F 24.8 °F 86% 30.34 in 10.0 mi South 11.5 mph - N/A   Clear
9:15 AM 32.0 °F 22.5 °F 26.6 °F 80% 30.32 in 10.0 mi South 12.7 mph - N/A   Clear
9:35 AM 32.0 °F 23.0 °F 26.6 °F 80% 30.32 in 10.0 mi South 11.5 mph 17.3 mph N/A   Clear
9:55 AM 35.6 °F 26.2 °F 26.6 °F 70% 30.31 in 10.0 mi South 15.0 mph 21.9 mph N/A   Clear
10:00 AM 35.6 °F 27.5 °F 28.4 °F 75% 30.31 in 10.0 mi South 11.5 mph 21.9 mph N/A   Clear
10:33 AM 37.4 °F 27.8 °F 26.6 °F 65% 30.28 in 10.0 mi South 17.3 mph 23.0 mph N/A   Clear
10:55 AM 39.2 °F 31.2 °F 26.6 °F 61% 30.28 in 10.0 mi South 13.8 mph 26.5 mph N/A   Clear
11:15 AM 41.0 °F 31.6 °F 26.6 °F 57% 30.27 in 10.0 mi South 20.7 mph - N/A   Clear
11:34 AM 42.8 °F 35.4 °F 24.8 °F 49% 30.27 in 10.0 mi South 15.0 mph 25.3 mph N/A   Scattered Clouds
12:15 PM 44.6 °F 36.1 °F 24.8 °F 46% 30.25 in 10.0 mi South 21.9 mph 26.5 mph N/A   Scattered Clouds
12:35 PM 46.4 °F 39.5 °F 24.8 °F 43% 30.23 in 10.0 mi South 17.3 mph 26.5 mph N/A   Clear
12:55 PM 46.4 °F 39.0 °F 23.0 °F 40% 30.21 in 10.0 mi South 19.6 mph 29.9 mph N/A   Mostly Cloudy
1:35 PM 48.2 °F - 21.2 °F 34% 30.18 in 10.0 mi South 18.4 mph 26.5 mph N/A   Clear
1:55 PM 48.2 °F - 19.4 °F 32% 30.16 in 10.0 mi South 20.7 mph 32.2 mph N/A   Clear
2:14 PM 50.0 °F - 17.6 °F 28% 30.14 in 10.0 mi South 19.6 mph 26.5 mph N/A   Clear
2:35 PM 51.8 °F - 15.8 °F 24% 30.13 in 10.0 mi South 21.9 mph 28.8 mph N/A   Clear
2:55 PM 51.8 °F - 17.6 °F 26% 30.11 in 10.0 mi South 20.7 mph 28.8 mph N/A   Clear
3:15 PM 51.8 °F - 17.6 °F 26% 30.09 in 10.0 mi South 23.0 mph 27.6 mph N/A   Clear
3:35 PM 51.8 °F - 17.6 °F 26% 30.08 in 10.0 mi South 16.1 mph 28.8 mph N/A   Clear
3:55 PM 51.8 °F - 17.6 °F 26% 30.07 in 10.0 mi South 21.9 mph 31.1 mph N/A   Clear
4:15 PM 53.6 °F - 19.4 °F 26% 30.05 in 10.0 mi South 18.4 mph 27.6 mph N/A   Clear
4:35 PM 53.6 °F - 19.4 °F 26% 30.03 in 10.0 mi South 23.0 mph 29.9 mph N/A   Clear
5:15 PM 53.6 °F - 17.6 °F 24% 30.00 in 10.0 mi South 19.6 mph 29.9 mph N/A   Clear
5:54 PM 53.6 °F - 17.6 °F 24% 29.97 in 10.0 mi South 21.9 mph 33.4 mph N/A   Clear
6:15 PM 51.8 °F - 17.6 °F 26% 29.96 in 10.0 mi South 19.6 mph 26.5 mph N/A   Clear
6:35 PM 51.8 °F - 17.6 °F 26% 29.96 in 10.0 mi South 17.3 mph 24.2 mph N/A   Clear
6:55 PM 51.8 °F - 17.6 °F 26% 29.96 in 10.0 mi South 16.1 mph 21.9 mph N/A   Clear
7:15 PM 50.0 °F - 17.6 °F 28% 29.95 in 10.0 mi South 13.8 mph 19.6 mph N/A   Clear
7:34 PM 50.0 °F - 17.6 °F 28% 29.94 in 10.0 mi South 13.8 mph 20.7 mph N/A   Clear
7:55 PM 48.2 °F - 17.6 °F 30% 29.93 in 10.0 mi South 15.0 mph 21.9 mph N/A   Clear
8:15 PM 48.2 °F - 17.6 °F 30% 29.92 in 10.0 mi South 16.1 mph 21.9 mph N/A   Clear
8:34 PM 48.2 °F - 17.6 °F 30% 29.90 in 10.0 mi SSE 15.0 mph 19.6 mph N/A   Clear
9:15 PM 46.4 °F 40.1 °F 17.6 °F 32% - 10.0 mi South 15.0 mph - N/A   Clear
9:33 PM 46.4 °F 40.1 °F 19.4 °F 34% 29.88 in 10.0 mi South 15.0 mph - N/A   Clear
9:55 PM 48.2 °F - 19.4 °F 32% 29.87 in 10.0 mi South 12.7 mph 21.9 mph N/A   Clear
10:15 PM 50.0 °F - 19.4 °F 30% 29.86 in 10.0 mi South 13.8 mph 20.7 mph N/A   Scattered Clouds
10:55 PM 50.0 °F - 19.4 °F 30% 29.84 in 10.0 mi South 12.7 mph 17.3 mph N/A   Clear
11:35 PM 48.2 °F - 19.4 °F 32% 29.83 in 10.0 mi South 12.7 mph 16.1 mph N/A   Clear
11:55 PM 48.2 °F - 19.4 °F 32% 29.82 in 10.0 mi South 10.4 mph 16.1 mph N/A   Clear